This is the latest recevied weather packets stored in our database for station/object NE1CU. If no packets are shown the sender has not sent any weather packets the latest 10 day(s).
| Time | Temp. | Humidity | Pressure | Rain* | Wind** | Luminosity | Snow |
|---|---|---|---|---|---|---|---|
| 1777292634 | 10.56° C | 68% | 1023.4 hPa | 0 mm | - | 53 W/m² | - |
| 1777292330 | 10° C | 71% | 1023.5 hPa | 0 mm | - | 50 W/m² | - |
| 1777292026 | 10° C | 73% | 1023.5 hPa | 0 mm | - | 50 W/m² | - |
| 1777291723 | 9.44° C | 74% | 1023.2 hPa | 0 mm | - | 48 W/m² | - |
| 1777291420 | 9.44° C | 75% | 1023.6 hPa | 0 mm | - | 47 W/m² | - |
| 1777291117 | 9.44° C | 75% | 1023.4 hPa | 0 mm | - | 46 W/m² | - |
| 1777290813 | 8.89° C | 77% | 1023.3 hPa | 0 mm | - | 45 W/m² | - |
| 1777290510 | 8.89° C | 78% | 1023.5 hPa | 0 mm | - | 44 W/m² | - |
| 1777290206 | 8.33° C | 80% | 1023.4 hPa | 0 mm | - | 47 W/m² | - |
| 1777289903 | 7.78° C | 80% | 1023.4 hPa | 0 mm | - | 46 W/m² | - |
| 1777289600 | 7.78° C | 81% | 1023.4 hPa | 0 mm | - | 43 W/m² | - |
| 1777289295 | 7.78° C | 82% | 1023.3 hPa | 0 mm | - | 42 W/m² | - |
| 1777288992 | 7.22° C | 84% | 1023.2 hPa | 0 mm | - | 40 W/m² | - |
| 1777288689 | 7.22° C | 85% | 1023.1 hPa | 0 mm | - | 38 W/m² | - |
| 1777288386 | 6.67° C | 86% | 1023 hPa | 0 mm | - | 36 W/m² | - |
| 1777288082 | 6.67° C | 88% | 1022.9 hPa | 0 mm | - | 34 W/m² | - |
| 1777287778 | 6.11° C | 90% | 1022.8 hPa | 0 mm | - | 33 W/m² | - |
| 1777287475 | 6.11° C | 94% | 1022.9 hPa | 0 mm | - | 31 W/m² | - |
| 1777287170 | 5.56° C | 95% | 1022.9 hPa | 0 mm | - | 29 W/m² | - |
| 1777286868 | 5.56° C | 95% | 1022.9 hPa | 0 mm | - | 27 W/m² | - |
| 1777286565 | 5° C | 95% | 1022.9 hPa | 0 mm | - | 25 W/m² | - |
| 1777286263 | 5° C | 95% | 1022.8 hPa | 0 mm | - | 22 W/m² | - |
| 1777285959 | 4.44° C | 95% | 1022.7 hPa | 0 mm | - | 20 W/m² | - |
| 1777285656 | 4.44° C | 95% | 1022.6 hPa | 0 mm | - | 17 W/m² | - |
| 1777285354 | 3.89° C | 95% | 1022.6 hPa | 0 mm | - | 15 W/m² | - |
* Rain latest hour (hover to see other rain measurements)
** Current wind speed in m/s (hover to see current wind gust speed)